Weather in Blue Bay

Mauritius     20°26′33″S   57°43′04″E
temp.,
°C
wind,
m/s
gust,
m/s
humid.,
%
clouds,
%
prec.,
mm/h
press.,
hPa
HPBL,
m
15 may, sat
sat1501:00+25ese8106814 0.0 10181255
04:00+26ese91062100 0.3 10171558
07:00+25ese89653 0.1 10191392
10:00+26se896951 0.1 10191271
13:00+26ese89717 0.4 10171160
16:00+26ese9107113 1.7 10161162
19:00+26ese9106888 0.6 10181392
22:00+26ese10106315 0.6 10191516
16 may, sun
sun1601:00+25e910630 0.1 10181469
04:00+25ese78632 0.1 10171298
07:00+25ese896963 0.1 10181113
10:00+25ese9107577 0.9 10181010
13:00+26e78610 0.9 10171245
16:00+26ese786837 0.9 10161153
19:00+26ese886751 0.1 10171241
22:00+26ese89686 0.1 10181182
17 may, mon
mon1701:00+25e997025 0.4 10171173
04:00+25e78630 0.4 10171174
07:00+25e68651 0.0 10181136
10:00+26e676731 0.2 10181224
13:00+26e67620 0.1 10171188
16:00+26e67686 0.1 10161103
19:00+26ese676684 0.0 10171138
22:00+26e786698 0.0 10181183
18 may, tue
tue1801:00+26ese676362 0.0 10171389
04:00+26ese67615 0.0 10161378
07:00+25ese786593 0.0 10171201
10:00+25ese8966100 0.1 10181247
13:00+26ese676376 0.1 10161194
16:00+26ese776390 0.1 10151278
19:00+25se78605 0.0 10171211
22:00+25se77621 0.0 10171165
19 may, wed
wed1901:00+25se77645 0.0 10161072
04:00+25sse886967 0.0 10151068
07:00+25se996982 0.1 10161259
10:00+25se996737 0.2 10171265
13:00+25se886566 0.1 10151405
16:00+25se786252 0.1 10141483
19:00+25se911612 0.0 10151602
22:00+26ese9116057 0.1 10171703